C/2024 B1 ( Lemmon )

Japanese version
Home page
Updated on September 10, 2024

---------------------------------------------------------------------

* Profile

Discovery Date January 16, 2024
Magnitude 20.6 mag
Discoverer Mt. Lemmon Survey

* Pictures

* Orbital Elements

Epoch 2024 Oct. 17.0 TT = JDT 2460600.5
T 2024 Oct. 7.70287 TT                                  Rudenko
q   1.6336462            (2000.0)            P               Q
z  -0.0004905      Peri.   66.21034     -0.21835545     -0.30127160
 +/-0.0000055      Node    79.18765     +0.07109250     -0.95353614
e   1.0008012      Incl.   70.90490     +0.97327630     +0.00206002
>From 58 observations 2023 Oct. 13-2024 Aug. 30, mean residual 0".5.

* Finding Charts

* Magnitudes Graph

        m1 = 8.5 + 5 log d + 16.0 log r

---------------------------------------------------------------------

The orbital elements are published on M.P.E.C. 2024-R10.
The charts are made with StellaNavigator Ver.11 (AstroArts).
The magnitudes graphs are made with Comet for Windows.

---------------------------------------------------------------------

Copyright(C) Seiichi Yoshida (comet@aerith.net). All rights reserved.